Regional Weather Roundup
Issued by NWS Goodland, KS

Home | Current Version | Previous Version | Text Only | Print | Product List | Glossary Off
Versions: 1 2 3 4 5 6 7 8 9 10 11 12 13 14 15 16 17 18 19 20 21 22 23 24 25 26 27 28 29 30 31 32 33 34 35 36 37 38 39 40 41 42 43 44 45 46 47 48 49 50

000
ASUS43 KGLD 280208
RWRGLD

GOODLAND FORECAST AREA HOURLY WEATHER ROUNDUP
NATIONAL WEATHER SERVICE GOODLAND KS
800 PM MDT FRI MAR 27 2015

...OFFICIAL OBSERVATIONS...

CITY           SKY/WX    TMP DP  RH WIND       PRES   REMARKS
GOODLAND KS    PTCLDY    51  34  52 S5        30.01R
HILL CITY KS   PTCLDY    55  35  47 VRB5      29.96S
IMPERIAL NEB   MOCLDY    58  33  39 NW6       29.96R
MCCOOK NEB     MOCLDY    58  35  42 N7        29.93R
AKRON CO       PTCLDY    51  33  50 N12       30.04R
BURLINGTON CO  PTCLDY    56  35  45 SW3       30.04R
LIMON CO       MOCLDY    57  31  37 N10       30.11R
$$

...UNOFFICIAL OBSERVATIONS...

CITY           SKY/WX    TMP DP  RH WIND       PRES   REMARKS
COLBY KS       CLEAR     52  37  58 W6        29.99R
GOVE KS          N/A     57  32  39 MISG        N/A
LENORA KS        N/A     51  32  48 MISG        N/A
NORTON KS      PTCLDY    50  30  46 E7        29.95R
SHARON SPRINGS   N/A     58  37  45 CALM        N/A
TRIBUNE KS     PTCLDY    55  41  58 S10       30.04S
KIT CARSON CO    N/A     57  30  36 MISG        N/A
$$


USA.gov is the U.S. government's official web portal to all federal, state and local government web resources and services.